GW0458 Weather Reports


time (UTC)temp
F
wind
direction
speed
knots
gust
knots
rain 1hr
in
rain 24hr
in
rain mn
in
humidity
%
barometer
mb
20260502224222 75 214 1.7 4.3 0.00 0.00 0.00 55 1021.4
20260502221222 74 338 1.7 1.7 0.00 0.00 0.00 59 1021.7
20260502214221 75 213 2.6 2.6 0.00 0.00 0.00 58 1022.0
20260502211216 76 206 0.9 0.9 0.00 0.00 0.00 55 1022.7
20260502204211 74 208 0.9 0.9 0.00 0.00 0.00 58 1022.9
20260502201210 74 247 0.9 1.7 0.00 0.00 0.00 59 1023.1
20260502194208 74 202 0.9 1.7 0.00 0.00 0.00 59 1023.1
20260502191205 72 229 0.9 0.9 0.00 0.00 0.00 62 1023.9
20260502184203 68 231 1.7 2.6 0.00 0.00 0.00 69 1023.8
20260502181201 68 205 0.9 0.9 0.00 0.00 0.00 67 1024.0
20260502164200 58 209 0.0 0.0 0.00 0.00 0.00 86 1024.5
20260502161158 57 213 0.0 0.9 0.00 0.00 0.00 90 1024.9
20260502151149 54 215 0.0 0.0 0.00 0.00 0.00 96 1024.8
20260502121138 51 208 0.0 0.0 0.00 0.00 0.00 98 1024.8
20260502114137 52 202 0.9 0.9 0.00 0.00 0.00 96 1024.8
20260502111133 52 187 0.9 0.9 0.00 0.00 0.00 94 1025.4
20260502104129 51 200 0.0 0.0 0.00 0.00 0.00 94 1024.9
20260502101125 53 199 0.0 0.0 0.00 0.00 0.00 90 1024.5
20260502091118 55 207 0.0 0.0 0.00 0.00 0.00 79 1024.5
20260502071107 58 209 0.0 0.0 0.00 0.00 0.00 66 1024.3
20260502064105 60 174 0.0 0.0 0.00 0.00 0.00 61 1024.1
20260502061101 61 209 0.0 0.0 0.00 0.00 0.00 62 1023.9
20260502054100 61 215 0.0 0.0 0.00 0.00 0.00 64 1023.4
20260502051059 62 218 0.0 0.0 0.00 0.00 0.00 65 1023.1
20260502044056 62 220 0.0 0.9 0.00 0.00 0.00 71 1023.3
20260502041054 62 211 0.0 0.0 0.00 0.00 0.00 73 1023.2
20260502034049 64 208 0.0 0.9 0.00 0.00 0.00 68 1022.3
20260502031044 65 213 0.0 0.0 0.00 0.00 0.00 64 1022.2
20260502024043 67 216 1.7 2.6 0.00 0.00 0.00 57 1021.9
20260502021042 67 211 0.0 0.0 0.00 0.00 0.00 57 1021.8
20260502014042 70 236 0.9 0.9 0.00 0.00 0.00 51 1021.7
20260502011039 69 232 0.0 0.9 0.00 0.00 0.00 53 1022.2
20260502004038 70 252 0.9 0.9 0.00 0.00 0.00 53 1022.1
20260502001033 70 224 0.9 0.9 0.00 0.00 0.00 54 1021.9
20260501234031 71 208 0.0 0.9 0.00 0.00 0.00 48 1022.0
20260501231027 73 63 2.6 2.6 0.00 0.00 0.00 46 1022.1